ITARNLAS2 Weather Reports


time (UTC)temp
F
wind
direction
speed
knots
gust
knots
rain 1hr
in
rain 24hr
in
rain mn
in
humidity
%
barometer
mb
20260510014607 50 146 1.7 12.2 0.00 0.06 0.03 100 1011.9
20260510013056 50 272 1.7 9.6 0.00 0.06 0.03 100 1012.1
20260510011600 49 142 2.6 9.6 0.00 0.06 0.03 100 1012.0
20260510004558 49 124 1.7 7.8 0.00 0.05 0.03 100 1012.4
20260510003101 50 100 1.7 6.1 0.00 0.05 0.03 100 1012.6
20260510001556 50 90 1.7 3.5 0.00 0.05 0.03 100 1013.0
20260510000058 50 70 0.9 3.5 0.01 0.05 0.03 100 1013.1
20260509234608 50 81 1.7 7.8 0.00 0.04 0.02 100 1013.3
20260509233053 50 125 0.0 2.6 0.01 0.04 0.02 100 1013.6
20260509231556 51 111 0.9 3.5 0.01 0.04 0.02 100 1013.7
20260509224553 51 68 0.9 4.3 0.03 0.03 0.01 100 1013.8
20260509223059 51 102 0.9 3.5 0.03 0.03 0.00 100 1013.8
20260509221555 51 180 0.9 8.7 0.03 0.03 0.00 100 1013.9
20260509220104 51 160 1.7 7.0 0.02 0.02 0.00 100 1013.8
20260509214558 51 128 1.7 10.4 0.00 0.00 0.00 100 1013.8
20260509213104 51 0 1.7 8.7 0.00 0.00 0.00 100 1013.7
20260509211604 51 87 1.7 6.1 0.00 0.00 0.00 100 1013.6
20260509210101 52 0 1.7 7.8 0.00 0.00 0.00 99 1013.6
20260509204600 52 130 1.7 7.0 0.00 0.00 0.00 96 1013.6
20260509203101 52 244 2.6 8.7 0.00 0.00 0.00 93 1013.4
20260509201556 52 163 2.6 11.3 0.00 0.00 0.00 89 1013.2
20260509200057 52 18 3.5 7.8 0.00 0.00 0.00 88 1013.1
20260509194559 52 107 3.5 9.6 0.00 0.00 0.00 87 1012.7
20260509193058 52 0 2.6 11.3 0.00 0.00 0.00 87 1012.5
20260509191609 53 163 4.3 9.6 0.00 0.00 0.00 88 1012.3
20260509190100 53 44 5.2 10.4 0.00 0.00 0.00 88 1012.2
20260509184558 53 182 3.5 12.2 0.00 0.00 0.00 88 1012.7
20260509183057 53 207 6.1 15.6 0.00 0.00 0.00 88 1012.7
20260509181605 54 131 6.1 13.9 0.00 0.00 0.00 89 1012.2
20260509180101 54 191 5.2 14.8 0.00 0.00 0.00 89 1012.4
20260509174604 54 156 2.6 11.3 0.00 0.00 0.00 88 1012.6
20260509173112 54 167 2.6 6.1 0.00 0.00 0.00 87 1012.2
20260509171601 54 118 2.6 9.6 0.00 0.00 0.00 87 1011.9
20260509170100 55 154 3.5 7.8 0.00 0.00 0.00 87 1011.9
20260509164554 55 159 3.5 9.6 0.00 0.00 0.00 88 1011.8
20260509163108 55 228 3.5 17.4 0.00 0.00 0.00 89 1011.7
20260509161606 55 163 4.3 17.4 0.00 0.00 0.00 90 1011.8
20260509154602 56 98 2.6 16.5 0.00 0.00 0.00 93 1012.2
20260509153054 55 90 4.3 14.8 0.00 0.00 0.00 93 1012.1
20260509151555 56 161 3.5 15.6 0.00 0.00 0.00 93 1012.5
20260509150053 56 157 6.1 16.5 0.00 0.00 0.00 94 1012.8
20260509144610 56 162 2.6 14.8 0.00 0.00 0.00 95 1013.0
20260509143055 56 175 7.0 17.4 0.00 0.00 0.00 94 1013.0
20260509141600 56 134 5.2 20.0 0.00 0.00 0.00 95 1013.0
20260509140113 57 161 7.0 15.6 0.00 0.00 0.00 94 1013.2
20260509134557 57 131 7.0 17.4 0.00 0.00 0.00 93 1013.4
20260509133103 58 138 6.1 20.9 0.00 0.00 0.00 93 1013.5
20260509131559 59 92 6.1 13.0 0.00 0.00 0.00 92 1013.9
20260509130107 59 134 6.1 16.5 0.00 0.00 0.00 91 1014.0
20260509124609 59 341 4.3 22.6 0.00 0.00 0.00 93 1013.8
20260509123059 60 49 6.1 17.4 0.00 0.00 0.00 94 1013.7
20260509121617 59 42 8.7 17.4 0.00 0.00 0.00 96 1013.7
20260509120057 59 312 3.5 19.1 0.00 0.00 0.00 99 1013.8
20260509114602 60 146 5.2 13.9 0.00 0.00 0.00 98 1014.2
20260509113058 60 138 4.3 14.8 0.00 0.00 0.00 98 1014.1
20260509111604 59 278 6.1 12.2 0.00 0.00 0.00 99 1014.6
20260509110056 58 92 7.8 17.4 0.00 0.00 0.00 99 1014.3
20260509104556 58 102 7.0 15.6 0.00 0.00 0.00 98 1014.6
20260509103055 59 81 6.1 15.6 0.00 0.00 0.00 99 1014.4
20260509101555 58 43 7.0 20.9 0.00 0.00 0.00 99 1014.2
20260509100055 56 44 2.6 14.8 0.00 0.00 0.00 100 1014.3
20260509094557 55 249 3.5 12.2 0.00 0.00 0.00 100 1014.6
20260509093057 55 141 4.3 15.6 0.00 0.00 0.00 100 1014.3
20260509091558 55 148 5.2 15.6 0.00 0.00 0.00 100 1014.1
20260509090106 55 107 5.2 13.0 0.00 0.00 0.00 100 1014.5
20260509084600 54 78 6.1 11.3 0.00 0.00 0.00 100 1014.4
20260509083102 54 112 3.5 14.8 0.00 0.00 0.00 100 1014.4
20260509081557 55 147 4.3 10.4 0.00 0.00 0.00 100 1014.6
20260509080100 54 103 5.2 14.8 0.00 0.00 0.00 100 1014.7
20260509074601 54 123 4.3 12.2 0.00 0.00 0.00 100 1015.0
20260509073056 54 98 4.3 13.9 0.00 0.00 0.00 100 1015.2
20260509071555 54 111 4.3 13.9 0.00 0.00 0.00 100 1015.0
20260509070058 53 187 5.2 12.2 0.00 0.00 0.00 100 1015.3
20260509064556 53 129 5.2 14.8 0.00 0.00 0.00 100 1015.1
20260509063103 53 107 3.5 9.6 0.00 0.00 0.00 100 1015.1
20260509061600 53 84 5.2 15.6 0.00 0.00 0.00 100 1015.0
20260509060104 53 127 3.5 15.6 0.00 0.00 0.00 100 1014.7
20260509054606 53 175 3.5 13.9 0.00 0.00 0.00 100 1014.7
20260509053134 52 67 2.6 9.6 0.00 0.00 0.00 100 1014.6
20260509051611 52 92 2.6 13.0 0.00 0.00 0.00 100 1014.6
20260509050056 52 165 3.5 10.4 0.00 0.00 0.00 100 1014.5
20260509044555 52 169 2.6 10.4 0.00 0.00 0.00 100 1014.6
20260509043105 51 161 2.6 7.8 0.00 0.00 0.00 100 1014.3
20260509041603 51 0 1.7 7.8 0.00 0.00 0.00 100 1014.5
20260509040114 51 141 1.7 10.4 0.00 0.00 0.00 100 1014.6
20260509034605 51 164 0.9 11.3 0.00 0.00 0.00 100 1014.8
20260509033056 51 175 3.5 7.8 0.00 0.00 0.00 100 1014.8
20260509031606 51 61 3.5 9.6 0.00 0.00 0.00 100 1014.8
20260509030055 51 142 3.5 13.0 0.00 0.00 0.00 100 1014.7
20260509024555 51 155 2.6 11.3 0.00 0.00 0.00 100 1014.8
20260509023054 51 123 1.7 11.3 0.00 0.00 0.00 100 1014.9
20260509021555 51 90 3.5 10.4 0.00 0.00 0.00 100 1014.6
20260509020056 51 80 3.5 11.3 0.00 0.00 0.00 100 1014.9